sat.trackr.live / text

‹ back to catalog

STARLINK-5275

NORAD 55398 · 2023-014H

PAYLOAD ACTIVE UNKNOWN

§ Identity

Operator
Country
US
Launch date
2023-01-31
Launch site
AFWTR
Launch vehicle
Mass (kg)
RCS (m²)

Purposes: comms

External: N2YO · Heavens-Above · Gunter

§ Orbital elements

Epoch: 2026-05-24T15:28:04.665216Z

Period
96.11 min
Inclination
69.9993°
Eccentricity
0.0003301
Mean motion
14.98329266 rev/d
Perigee alt
569.8 km
Apogee alt
574.4 km
Semi-major
6,950.2 km
B*
6.1823e-6
RAAN
232.9059°
Arg perigee
269.0161°
Mean anomaly
91.0620°
Rev number
18,343

§ Raw data

STARLINK-52751 55398U 23014H   26144.64449844 -.00000019  00000+0  61823-5 0  99952 55398  69.9993 232.9059 0003301 269.0161  91.0620 14.98329266183436

JSON: /api/v1/satellites/55398 · /tle

For live sub-satellite position, see the globe view (requires WebGL).

§ Visibility from observer

Set your observer location to see the next 7 days of passes ≥ 10°. The values pass through the URL so the page stays shareable.

No JS? Fill the form by hand. The geolocation button needs JavaScript.